Tracking 28790 objects as of 19-Apr-2024
HD Live streaming from Space Station
objects crossing your sky now

SL-3 DEB

Track SL-3 DEB now!
10-day predictions


NORAD ID: 24893
Int'l Code: 1988-032C
Perigee: 554.1 km
Apogee: 589.2 km
Inclination: 97.6 °
Period: 96.0 minutes
Semi major axis: 6942 km
RCS: 0.0103 m2 (small)
Launch date: April 20, 1988
Source: Commonwealth of Independent States (former USSR) (CIS)
Launch site: TYURATAM MISSILE AND SPACE COMPLEX (TTMTR)

Note: This is SATELLITE DEBRIS
Your satellite tracking list
Your tracking list is empty




NASA's NSSDC Master Catalog

Two Line Element Set (TLE):
1 24893U 88032C   24109.91558719  .00004911  00000-0  38905-3 0  9991
2 24893  97.5579  85.8547 0025306 358.6295  61.8016 15.00773354710231
Source of the keplerian elements: AFSPC